MEASAT-3B

Last updated on Nov. 15, 2019, 4:20 a.m. UTC

1 40147U 14054B   19317.85608476 -.00000228  00000-0  00000-0 0  9998
2 40147   0.0401  45.0315 0000965 224.1589 183.2117  1.00272008 18778
UTC
Height (km)
Latitude
Longitude
Inclination
Orbital Period
UTC large
Height (km)
Speed (km/s)
/
Latitude / Longitude
Inclination (degrees)
Orbital Period (minutes)
Azimuth
Elevation
Range (km)
Doppler Factor
iOS Compass Heading
iOS Angle

Next 30 passes for location: Hong Kong

Rise time Rise Azimuth (degrees) Set time Set Azimuth (degrees) Duration Max altitude (degrees)

No matching passes for this satellites